Temp
82 87 75 76 76 76 77 76 76 76 77 77 77 77 76 77 77 77 77 78 78 79 79 79 79 79 79 79 78 77 77 77 77 78 78 78 78 78 78 78 78 83 76
75 84 73 75 76 76 77 77 77 77 77 77 77 77 76 76 76 77 77 78 78 79 79 79 79 79 78 78 77 76 76 76 76 77 77 78 78 78 78 77 78 80 76
70 72 73 71 75 76 76 77 78 78 77 77 77 77 77 77 77 77 77 77 78 79 79 79 79 78 78 77 76 76 76 75 76 76 77 86 85 78 77 77 76 76 76
72 71 70 69 70 74 75 76 77 78 78 77 77 77 77 77 77 77 77 77 78 78 79 79 79 78 77 76 75 75 75 75 75 76 84 86 87 76 77 77 76 76 76
74 73 68 68 69 70 70 72 76 77 78 77 77 77 77 77 77 77 76 76 77 78 78 79 79 77 76 74 74 74 74 74 74 77 86 88 85 79 77 77 76 75 75
75 78 69 67 68 69 69 70 70 72 75 76 77 77 77 77 77 77 76 76 76 77 78 78 78 76 74 74 73 74 74 74 72 87 87 85 85 77 77 76 76 76 74
73 76 76 67 68 68 68 68 68 69 69 72 75 75 76 77 77 76 75 75 75 76 77 77 76 75 74 73 73 73 73 72 81 86 90 90 81 77 77 76 75 74 74
73 74 74 72 69 69 68 67 67 68 68 68 69 72 74 75 75 75 75 74 74 74 75 75 75 74 73 72 72 72 71 71 83 89 90 87 75 77 77 76 74 74 74
75 73 72 73 73 71 68 67 67 68 68 69 69 68 68 70 72 73 74 74 74 74 74 74 73 72 72 72 71 71 70 70 80 87 91 90 75 76 77 75 74 74 74
75 74 72 72 73 74 76 68 68 69 68 69 70 69 69 69 71 71 72 73 73 73 73 73 72 72 71 71 70 70 69 70 80 86 91 85 74 76 77 75 74 73 73
75 74 72 72 72 74 78 76 73 72 71 71 72 70 74 78 78 73 74 72 72 72 72 72 71 71 70 69 70 69 69 81 85 88 91 72 75 77 76 75 74 73 73
72 73 74 69 69 72 78 76 77 78 77 76 74 72 75 75 78 75 73 68 70 70 71 70 70 70 70 82 83 70 79 83 86 88 92 71 74 76 76 75 73 73 72
72 72 72 68 67 68 72 74 76 76 74 75 73 71 71 73 75 77 77 76 70 71 74 74 78 80 81 83 86 86 83 83 86 90 86 70 73 76 76 75 73 73 72
70 69 70 69 66 66 70 71 72 73 72 72 72 69 69 71 71 71 74 75 77 71 67 71 73 74 76 79 85 85 87 87 88 89 86 69 71 74 76 76 74 73 72
69 67 66 67 65 65 66 67 67 67 69 70 71 69 68 68 68 69 70 72 74 77 77 66 64 68 73 76 78 85 85 85 86 88 88 68 69 72 74 76 75 74 73
67 66 65 66 64 65 65 64 66 66 67 69 70 68 65 65 65 67 67 70 73 74 75 74 73 67 67 74 75 76 80 84 85 85 86 77 67 69 71 74 75 75 74
67 66 64 65 64 64 64 65 67 66 67 67 68 67 64 64 63 63 66 67 70 69 68 71 73 74 73 76 75 75 74 77 84 85 86 86 77 65 68 70 72 73 73
66 64 64 65 63 63 63 65 67 66 67 67 67 67 63 63 62 61 63 65 64 64 65 66 68 71 72 74 72 75 73 73 74 78 84 86 86 81 67 68 69 71 71
65 63 63 63 62 62 64 65 66 65 66 67 67 65 62 62 60 58 60 61 59 60 61 62 63 64 62 62 68 69 75 72 75 76 78 83 82 85 82 68 67 68 69
64 63 62 62 61 62 64 65 66 66 67 66 65 63 61 61 59 57 58 57 56 56 56 55 53 57 59 58 63 68 72 70 74 72 78 83 84 82 84 84 74 73 66
62 61 61 60 60 61 63 61 61 61 64 64 64 62 61 59 58 56 56 54 54 52 52 53 53 52 54 59 57 61 70 74 71 72 76 80 83 84 82 84 84 79 74
59 59 60 60 60 60 61 61 60 60 62 63 63 61 60 59 58 57 53 52 51 49 49 49 50 49 52 55 51 52 58 68 74 73 73 76 77 83 84 82 83 82 80
57 57 59 59 59 58 57 60 59 61 61 60 59 59 58 58 57 55 53 51 50 49 47 48 48 47 43 47 51 49 53 61 69 75 73 74 76 79 82 83 82 83 82
57 57 58 58 58 57 56 56 54 55 54 55 56 57 57 57 56 55 50 50 48 48 47 46 48 46 46 43 47 53 50 49 52 62 73 72 75 75 77 81 82 81 83
57 56 56 56 56 55 54 53 52 51 53 54 54 53 54 55 55 53 49 47 47 47 46 44 44 45 45 44 45 45 48 48 51 56 56 61 71 74 76 76 78 80 80
56 55 55 54 55 53 53 52 51 50 49 50 50 50 50 52 53 51 48 47 47 45 44 44 44 44 45 45 45 46 45 46 48 50 53 59 64 66 72 74 74 79 77
MSLP
1012.23 1012.32 1013.32 1013.42 1013.23 1013.20 1013.16 1013.07 1012.98 1013.00 1013.11 1013.22 1013.42 1013.52 1013.59 1013.53 1013.49 1013.47 1013.50 1013.56 1013.61 1013.66 1013.73 1013.76 1013.82 1013.81 1013.75 1013.63 1013.70 1013.77 1013.79 1013.70 1013.68 1013.65 1013.68 1013.81 1013.89 1013.93 1013.98 1013.87 1013.95 1013.80 1014.38
1014.13 1013.07 1013.97 1013.87 1013.75 1013.66 1013.62 1013.51 1013.53 1013.43 1013.44 1013.50 1013.52 1013.68 1013.84 1013.84 1013.83 1013.67 1013.78 1013.80 1013.84 1013.79 1013.85 1013.84 1013.99 1013.94 1013.92 1013.91 1013.95 1013.94 1014.01 1014.03 1013.95 1013.88 1013.80 1013.89 1014.02 1014.15 1014.17 1014.16 1013.81 1014.12 1014.65
1015.32 1014.87 1014.77 1014.53 1014.10 1013.97 1013.89 1013.80 1013.75 1013.80 1013.75 1013.71 1013.86 1013.84 1013.96 1014.05 1014.05 1013.97 1013.90 1014.00 1013.99 1013.95 1013.97 1013.96 1014.06 1014.07 1014.02 1014.05 1014.15 1014.08 1014.15 1014.12 1014.08 1013.89 1013.79 1013.07 1013.24 1014.24 1014.43 1014.41 1014.33 1014.47 1014.91
1015.47 1015.63 1015.65 1015.26 1014.81 1014.34 1014.21 1014.11 1013.99 1013.92 1013.80 1013.83 1013.87 1013.93 1014.08 1014.21 1014.25 1014.17 1014.06 1014.09 1014.16 1014.09 1014.03 1014.05 1014.19 1014.19 1014.18 1014.17 1014.26 1014.21 1014.28 1014.27 1014.17 1013.91 1013.49 1012.79 1012.75 1014.23 1014.72 1014.69 1014.72 1014.93 1015.08
1015.77 1015.90 1016.19 1015.72 1015.29 1015.07 1014.84 1014.64 1014.30 1014.19 1014.08 1014.09 1013.99 1013.98 1014.05 1014.20 1014.27 1014.20 1014.19 1014.18 1014.25 1014.26 1014.22 1014.18 1014.26 1014.33 1014.32 1014.26 1014.34 1014.31 1014.29 1014.27 1014.24 1013.81 1012.88 1012.52 1013.00 1014.15 1014.66 1014.96 1015.10 1015.25 1015.34
1016.18 1015.97 1016.41 1016.10 1015.87 1015.59 1015.39 1015.30 1015.05 1014.67 1014.44 1014.36 1014.28 1014.32 1014.13 1014.06 1014.13 1014.16 1014.14 1014.20 1014.25 1014.26 1014.28 1014.18 1014.18 1014.37 1014.46 1014.47 1014.41 1014.41 1014.36 1014.30 1014.17 1012.98 1012.43 1012.71 1013.23 1014.47 1014.56 1014.96 1015.08 1015.19 1015.63
1016.58 1016.48 1016.36 1016.55 1016.31 1016.10 1016.00 1015.74 1015.54 1015.29 1015.01 1014.77 1014.55 1014.39 1014.29 1014.15 1014.06 1014.02 1014.05 1014.04 1014.09 1014.18 1014.25 1014.22 1014.23 1014.36 1014.50 1014.50 1014.50 1014.48 1014.45 1014.39 1013.86 1012.52 1012.19 1012.22 1013.37 1014.20 1014.51 1014.91 1015.15 1015.40 1015.65
1016.87 1016.86 1016.79 1016.58 1016.62 1016.39 1016.30 1016.15 1015.95 1015.74 1015.50 1015.24 1014.97 1014.72 1014.52 1014.38 1014.19 1014.07 1014.03 1014.03 1014.07 1014.15 1014.18 1014.17 1014.18 1014.33 1014.46 1014.50 1014.51 1014.51 1014.47 1014.41 1013.61 1012.54 1011.96 1012.32 1013.22 1013.89 1014.46 1014.89 1015.20 1015.42 1015.68
1016.99 1017.01 1017.03 1016.96 1016.78 1016.42 1016.50 1016.41 1016.31 1016.03 1015.76 1015.52 1015.31 1015.26 1015.03 1014.43 1014.30 1014.10 1013.99 1013.92 1013.93 1013.96 1014.11 1014.15 1014.16 1014.14 1014.24 1014.35 1014.43 1014.46 1014.38 1014.27 1013.88 1012.51 1011.68 1011.80 1013.06 1013.61 1014.20 1014.74 1015.07 1015.32 1015.64
1016.97 1017.11 1017.32 1017.25 1017.01 1016.54 1016.32 1016.44 1016.31 1016.25 1016.03 1015.66 1015.36 1015.16 1014.71 1014.21 1013.88 1013.90 1013.87 1013.69 1013.64 1013.67 1013.75 1013.86 1014.01 1014.06 1014.06 1014.08 1014.08 1014.13 1014.15 1014.17 1013.66 1012.67 1011.52 1011.87 1012.84 1013.47 1014.04 1014.62 1014.86 1015.11 1015.47
1016.93 1017.19 1017.55 1017.55 1017.44 1016.85 1016.17 1016.19 1016.10 1016.04 1015.93 1015.61 1015.45 1015.35 1014.66 1014.36 1014.05 1014.34 1013.72 1013.40 1013.23 1013.35 1013.29 1013.49 1013.59 1013.70 1013.77 1013.76 1013.63 1013.67 1013.88 1013.31 1012.66 1011.99 1010.98 1011.68 1012.31 1013.03 1013.69 1014.33 1014.72 1014.92 1015.24
1017.29 1017.55 1017.71 1018.13 1017.91 1017.29 1016.52 1016.44 1016.16 1015.96 1016.03 1015.92 1015.89 1015.85 1015.35 1015.01 1014.35 1014.31 1013.98 1013.70 1013.50 1013.24 1013.07 1013.16 1013.25 1013.35 1013.42 1012.71 1012.13 1012.85 1012.92 1012.38 1011.94 1011.19 1010.32 1011.29 1011.81 1012.51 1013.27 1013.83 1014.31 1014.71 1014.90
1017.72 1018.02 1018.23 1018.60 1018.51 1018.13 1017.37 1017.08 1016.72 1016.44 1016.49 1016.21 1016.20 1016.27 1015.94 1015.38 1014.85 1014.39 1013.97 1013.65 1013.83 1013.54 1012.93 1012.84 1012.41 1012.38 1012.13 1011.61 1011.15 1010.84 1011.30 1011.54 1011.28 1010.66 1010.15 1011.18 1011.44 1012.15 1012.73 1013.22 1013.78 1014.21 1014.71
1018.07 1018.57 1018.76 1018.80 1018.79 1018.64 1018.14 1017.83 1017.53 1017.25 1017.23 1016.81 1016.64 1016.73 1016.38 1015.77 1015.41 1015.14 1014.60 1014.14 1013.56 1013.77 1013.71 1013.28 1012.67 1012.04 1011.39 1011.06 1010.63 1010.43 1010.18 1010.15 1010.23 1010.24 1010.10 1010.83 1011.02 1011.61 1012.32 1012.58 1013.05 1013.62 1014.10
1018.56 1019.09 1019.41 1019.24 1019.30 1019.07 1018.78 1018.67 1018.46 1018.25 1017.88 1017.66 1017.12 1017.20 1017.13 1016.71 1016.16 1015.82 1015.25 1014.70 1014.08 1013.44 1012.84 1013.29 1013.39 1012.73 1011.76 1011.01 1010.38 1009.71 1009.93 1010.01 1010.08 1010.00 1009.83 1010.67 1010.82 1011.07 1011.58 1012.12 1012.40 1012.88 1013.43
1019.32 1019.57 1019.94 1019.74 1019.71 1019.54 1019.27 1019.19 1018.80 1018.62 1018.42 1017.93 1017.69 1017.81 1017.77 1017.63 1017.07 1016.35 1015.74 1014.96 1014.30 1013.87 1013.40 1013.00 1012.71 1012.46 1012.03 1011.27 1010.66 1010.09 1009.69 1009.39 1009.59 1009.63 1009.86 1010.41 1010.76 1010.81 1011.11 1011.31 1011.84 1012.29 1012.71
1019.61 1019.98 1019.98 1019.91 1020.03 1019.82 1019.55 1019.38 1018.93 1018.88 1018.65 1018.29 1018.08 1018.05 1018.35 1018.03 1017.54 1017.07 1016.17 1015.54 1014.87 1014.72 1014.43 1013.42 1012.62 1011.86 1011.49 1010.98 1010.32 1010.15 1009.87 1009.53 1008.95 1008.82 1008.84 1009.25 1010.00 1010.44 1010.42 1010.74 1010.98 1011.59 1012.10
1019.98 1020.16 1020.21 1020.36 1020.26 1020.06 1019.87 1019.37 1019.16 1019.10 1018.81 1018.61 1018.43 1018.32 1018.55 1018.28 1018.19 1017.68 1016.82 1016.20 1016.03 1015.85 1015.21 1014.38 1013.41 1012.29 1011.63 1010.87 1010.39 1009.57 1009.38 1009.41 1008.78 1008.58 1008.16 1008.03 1008.48 1009.34 1010.03 1009.87 1010.25 1010.71 1011.47
1020.28 1020.43 1020.46 1020.48 1020.61 1020.44 1019.85 1019.34 1019.29 1019.19 1018.96 1018.86 1018.70 1018.76 1018.94 1018.58 1018.66 1018.52 1017.57 1017.15 1017.01 1016.47 1015.91 1015.34 1014.53 1013.84 1013.02 1012.23 1010.92 1009.81 1008.89 1008.68 1008.49 1008.36 1008.08 1007.47 1007.64 1008.00 1008.15 1008.84 1009.07 1009.54 1010.39
1020.35 1020.78 1020.71 1020.73 1020.91 1020.64 1019.84 1019.44 1019.27 1019.08 1018.84 1018.98 1019.03 1019.26 1019.33 1019.06 1019.05 1018.99 1018.20 1017.93 1017.62 1017.06 1016.55 1016.40 1015.96 1015.22 1014.18 1013.11 1011.80 1010.16 1008.72 1008.23 1007.79 1007.57 1007.13 1006.79 1006.96 1007.19 1007.19 1007.02 1008.13 1008.65 1009.10
1020.63 1020.96 1021.00 1021.04 1021.10 1020.86 1020.32 1019.96 1019.91 1019.50 1019.25 1019.08 1019.13 1019.37 1019.38 1019.37 1019.20 1019.02 1018.77 1018.36 1018.06 1017.67 1017.24 1016.56 1015.86 1015.15 1014.44 1013.59 1012.02 1010.52 1008.43 1007.15 1006.94 1006.74 1006.66 1006.38 1005.84 1005.91 1006.12 1006.11 1006.31 1007.26 1008.30
1020.99 1021.32 1021.26 1021.29 1021.32 1021.29 1021.05 1020.68 1020.74 1020.22 1019.73 1019.43 1019.36 1019.42 1019.64 1019.45 1019.34 1019.06 1019.15 1018.78 1018.50 1018.13 1017.60 1017.17 1016.51 1015.56 1014.77 1014.24 1013.26 1011.80 1008.55 1006.52 1005.47 1005.70 1005.67 1005.35 1005.05 1004.78 1004.73 1005.17 1005.33 1005.58 1006.18
1021.26 1021.61 1021.55 1021.59 1021.68 1021.72 1021.64 1021.22 1021.02 1020.23 1019.73 1019.61 1019.68 1019.58 1019.76 1019.61 1019.48 1019.47 1019.34 1019.08 1018.81 1018.55 1018.19 1017.56 1016.95 1016.18 1015.26 1014.85 1014.39 1013.59 1010.47 1007.26 1005.75 1004.08 1004.15 1004.26 1004.22 1004.03 1003.90 1003.92 1004.34 1004.59 1004.91
1021.54 1021.82 1021.88 1021.89 1022.01 1022.11 1022.17 1021.85 1021.69 1021.13 1020.70 1020.69 1020.53 1020.31 1019.99 1019.78 1019.64 1019.56 1019.81 1019.46 1019.18 1018.94 1018.45 1017.97 1017.12 1016.57 1015.81 1014.72 1014.21 1013.39 1012.67 1011.93 1008.73 1004.79 1002.92 1003.12 1003.19 1003.29 1003.18 1003.01 1003.14 1003.50 1003.74
1021.65 1021.95 1022.27 1022.23 1022.36 1022.45 1022.66 1022.55 1022.40 1022.19 1021.79 1021.52 1021.19 1020.89 1020.29 1020.11 1019.76 1019.77 1020.13 1019.84 1019.50 1019.15 1018.67 1018.07 1017.21 1016.59 1015.98 1015.20 1014.26 1013.24 1012.07 1010.71 1009.37 1007.06 1004.33 1003.48 1002.75 1002.42 1002.49 1002.70 1002.51 1002.54 1002.71
1021.97 1022.32 1022.40 1022.49 1022.61 1023.01 1023.11 1023.07 1022.79 1022.79 1022.54 1022.16 1021.92 1021.54 1021.25 1020.83 1020.23 1020.11 1020.35 1020.07 1019.64 1019.23 1018.74 1017.97 1017.21 1016.56 1015.79 1015.20 1014.28 1013.23 1012.20 1010.90 1009.17 1008.04 1005.98 1004.18 1002.72 1002.19 1002.13 1002.08 1002.14 1001.94 1001.74
Wind_Speed
11 12 11 9 9 8 8 8 7 5 2 3 3 3 4 5 5 5 5 6 5 3 2 2 2 2 2 3 3 4 5 6 6 7 7 7 7 7 4 3 5 10 11
19 13 15 11 12 11 10 9 8 6 3 2 3 3 3 3 4 5 5 5 4 2 1 1 1 1 1 2 3 4 4 4 4 4 7 9 7 5 3 5 7 13 10
14 15 19 22 12 12 11 10 9 8 6 4 1 2 3 3 4 5 5 5 4 2 1 0 1 1 1 2 3 4 3 3 3 5 9 8 11 6 3 7 11 12 11
13 14 16 21 23 17 12 11 10 8 6 4 2 2 2 4 5 5 5 4 4 3 3 2 3 1 2 3 3 4 4 3 3 8 10 7 8 10 4 6 8 10 10
13 13 16 21 21 21 22 21 12 10 8 5 2 1 2 5 5 6 6 5 5 6 5 4 5 2 3 3 4 4 4 4 6 11 13 8 3 11 8 6 8 7 9
12 12 17 20 20 21 20 20 20 20 11 10 7 4 3 4 5 7 6 6 7 7 8 6 5 3 4 5 5 5 5 6 8 13 1 5 4 10 9 6 4 6 5
11 12 13 18 19 19 20 20 20 19 19 17 11 8 7 6 6 7 7 8 8 8 8 7 4 4 6 6 6 6 6 8 11 13 4 3 10 13 9 6 6 8 7
11 12 12 14 16 14 19 19 19 19 19 18 18 14 11 10 7 7 8 8 9 9 8 8 6 6 7 7 7 8 7 8 10 12 3 1 16 13 9 8 7 8 7
11 12 11 12 12 10 13 17 15 16 16 15 16 16 15 10 10 10 9 9 9 10 9 9 8 8 8 8 9 9 8 8 11 12 6 2 15 14 12 10 9 8 8
11 12 12 12 12 11 10 12 8 11 11 11 14 17 16 12 10 10 10 11 12 11 10 9 9 9 9 10 10 10 9 10 13 13 10 6 15 14 13 12 11 10 10
10 12 12 12 12 11 9 9 8 9 9 11 14 16 13 10 10 14 15 11 10 12 12 11 10 10 10 11 12 11 9 9 13 11 10 19 17 15 13 13 12 12 11
11 12 12 13 13 12 9 10 9 8 9 9 11 13 10 11 10 10 8 18 11 11 11 11 12 11 10 11 10 15 9 13 12 12 8 17 17 16 15 15 14 13 13
10 10 12 11 12 13 10 8 6 6 7 7 11 11 11 9 9 8 8 6 7 13 7 9 13 12 16 12 12 9 13 13 9 10 9 15 16 17 17 16 17 16 14
10 12 12 13 12 12 9 8 8 7 8 7 9 12 10 7 9 9 8 10 9 4 7 10 7 12 14 15 15 13 12 10 9 8 7 15 17 18 17 18 19 18 17
10 11 12 12 12 11 10 8 8 8 8 9 9 11 10 10 9 10 9 10 10 10 7 5 7 10 12 14 13 15 15 14 13 8 7 16 16 18 19 19 20 21 20
8 10 10 11 11 11 10 10 7 7 8 8 8 10 13 11 10 10 10 10 10 10 11 12 10 8 9 12 14 14 14 12 14 12 10 7 15 17 19 19 20 21 22
7 8 9 9 11 10 10 8 7 8 8 8 8 10 12 12 12 13 10 10 10 12 15 12 13 12 11 12 15 13 13 15 13 15 13 12 12 17 20 19 18 20 22
7 9 9 8 10 9 8 7 7 7 7 7 7 8 13 12 14 12 10 10 13 12 12 12 13 12 11 12 12 11 11 12 13 13 13 12 12 11 14 21 20 18 21
8 8 8 8 10 9 7 6 6 6 6 6 7 9 13 12 13 12 10 10 13 11 11 12 13 14 14 13 14 12 12 11 14 12 17 16 14 13 11 21 24 22 19
7 6 7 7 9 9 6 6 5 5 5 6 7 8 11 10 12 11 10 11 11 10 10 10 13 13 15 13 14 15 13 11 12 13 15 14 16 17 16 13 16 15 23
6 7 8 8 8 8 7 7 7 7 6 6 7 9 11 11 11 11 10 11 11 11 13 14 11 13 10 15 11 13 15 15 15 13 14 15 17 17 18 15 10 12 13
6 6 6 7 8 8 7 6 7 7 7 6 7 9 12 12 12 11 11 11 12 10 12 13 14 12 11 10 10 12 12 13 13 14 14 15 18 14 16 18 16 14 15
5 5 6 7 8 9 10 7 7 6 6 7 9 9 11 13 13 13 14 13 12 11 10 13 13 14 11 11 13 7 7 11 13 12 18 16 18 14 14 16 18 17 16
4 5 6 6 8 9 9 8 10 8 8 8 8 9 10 12 12 12 15 15 14 10 12 10 12 12 12 11 10 10 11 11 8 11 12 14 17 18 17 14 15 18 18
4 5 6 6 8 9 9 9 8 9 8 8 9 12 12 11 12 12 15 14 13 10 13 13 14 14 11 11 10 10 13 12 14 12 11 10 12 13 15 15 14 14 18
6 6 6 7 8 9 8 8 8 9 10 9 11 10 10 10 10 12 15 13 12 12 13 13 13 15 13 12 12 12 11 10 10 10 10 16 17 12 12 13 15 16 12
Wind_Direction
38 80 34 21 23 26 40 48 54 60 92 143 163 173 172 161 155 146 142 140 145 127 84 51 27 38 65 85 104 95 90 87 81 93 103 105 107 107 118 186 202 126 118
14 56 42 24 23 21 22 33 40 49 61 134 168 179 181 174 172 161 163 161 176 170 123 70 11 49 105 105 123 123 114 102 107 119 133 134 114 115 118 29 299 112 126
25 31 35 24 28 30 26 26 31 35 38 40 65 180 189 201 199 193 180 185 197 217 201 281 274 191 164 149 151 144 137 135 151 192 204 199 131 120 100 78 97 114 129
31 34 28 29 31 31 25 23 19 24 42 49 48 200 204 218 227 229 215 209 231 252 254 263 269 232 204 178 165 153 151 160 205 246 235 209 133 122 127 105 116 133 142
39 47 28 30 33 32 33 24 14 9 9 16 33 339 259 247 243 253 254 243 260 273 274 271 272 256 230 202 190 177 170 183 236 256 253 60 100 130 143 141 143 149 176
38 41 40 34 32 34 33 26 25 16 3 351 343 309 249 243 248 257 261 262 266 270 272 268 258 238 243 228 207 195 197 215 244 242 199 139 70 142 140 184 272 158 156
43 34 38 36 32 34 32 29 24 20 19 2 336 323 304 264 245 245 250 254 260 267 269 271 242 235 233 228 220 215 226 240 256 279 196 205 114 140 145 169 144 158 159
46 38 29 36 27 32 33 27 24 21 18 17 11 349 329 311 279 258 254 261 269 270 269 267 248 244 237 236 233 230 237 253 251 267 285 125 134 146 159 178 168 174 173
52 43 34 26 20 25 58 27 20 18 16 15 10 7 341 324 302 280 256 256 261 265 266 264 255 239 233 235 239 243 240 251 272 286 259 237 139 148 166 182 185 179 180
50 45 29 26 21 16 20 37 24 13 9 2 2 3 340 308 274 250 251 242 249 251 253 252 251 247 238 235 234 235 239 251 254 258 263 122 138 152 169 185 188 181 181
47 37 37 23 17 8 23 12 14 22 14 5 5 5 341 350 329 352 321 284 239 238 246 246 240 236 236 237 233 226 226 241 248 234 248 141 149 159 177 185 189 183 183
38 32 29 19 12 3 12 1 14 13 9 7 7 358 352 342 336 326 323 335 307 257 249 243 244 229 224 248 223 213 226 237 245 256 266 147 150 163 185 187 187 190 187
40 36 26 24 17 9 3 357 5 2 360 357 6 7 347 340 352 336 331 330 335 326 311 262 244 236 238 242 240 220 211 226 239 253 228 156 156 173 190 190 188 192 192
40 30 20 23 19 19 1 5 357 2 357 357 359 11 350 347 343 342 330 328 314 319 317 327 302 276 258 254 240 253 252 241 224 236 247 166 164 176 198 197 192 193 191
34 31 18 22 16 13 12 7 1 4 2 346 358 10 356 347 347 335 331 320 315 315 299 312 307 315 291 270 268 242 237 246 246 265 259 176 175 180 194 204 200 197 194
29 30 20 20 17 8 9 3 360 17 348 357 358 4 5 346 345 336 328 325 319 324 322 318 304 290 293 285 274 269 270 238 242 234 244 194 190 185 194 203 204 199 198
40 30 26 20 18 9 9 3 4 20 352 3 359 6 5 351 349 340 333 329 329 341 322 307 301 296 277 280 265 261 256 265 230 245 226 237 197 200 193 200 203 202 200
36 30 30 19 14 5 14 9 4 17 355 3 360 0 6 352 355 341 335 338 349 331 321 320 315 302 294 287 291 265 251 248 262 246 248 233 231 199 205 197 199 201 203
43 30 24 20 11 355 14 11 5 7 6 1 1 4 358 357 357 345 339 344 341 329 326 323 321 323 322 315 308 292 261 236 240 239 243 239 228 242 196 200 198 194 196
48 30 20 19 11 347 4 3 359 0 18 360 1 7 358 358 1 344 343 345 340 332 330 329 317 316 304 295 303 289 272 253 239 232 241 232 229 227 243 204 198 203 196
55 29 21 17 14 360 2 1 355 353 347 353 358 1 358 359 0 350 352 347 343 339 330 320 312 308 308 316 303 294 273 255 246 237 232 237 225 225 219 233 192 199 198
43 27 21 20 21 16 6 358 346 331 330 349 359 353 359 357 358 354 355 347 344 333 329 325 322 320 315 309 308 311 279 270 237 230 234 236 241 227 220 214 221 199 194
63 37 27 23 23 26 10 5 347 334 340 358 355 354 349 356 356 358 358 346 344 337 326 324 322 316 314 311 313 308 311 270 275 227 228 229 235 228 229 218 213 215 214
72 55 32 28 29 27 22 5 356 354 353 353 345 351 340 353 355 359 355 348 341 334 328 326 322 316 309 306 307 286 282 291 303 288 238 220 225 234 231 227 216 212 212
65 60 40 20 35 29 16 16 357 358 351 345 349 341 354 350 352 2 354 346 338 334 330 325 320 317 310 302 298 298 298 292 289 276 272 277 244 230 230 231 232 217 209
62 51 40 21 38 25 13 8 10 2 355 345 353 346 352 344 351 358 350 345 337 336 329 326 322 314 311 303 300 295 283 279 290 295 306 275 260 252 234 237 228 233 213